Regional Weather Roundup
Issued by NWS Portland, ME

Home | Current Version | Previous Version | Text Only | Print | Product List | Glossary On
Versions: 1 2 3 4 5 6 7 8 9 10 11 12 13 14 15 16 17 18 19 20 21 22 23 24 25 26 27 28 29 30 31 32 33 34 35 36 37 38 39 40 41 42 43 44 45 46 47 48 49 50
000
ASUS41 KGYX 220210
RWRGYX
WEATHER ROUNDUP FOR MAINE AND NEW HAMPSHIRE
NATIONAL WEATHER SERVICE GRAY ME
1000 PM EDT SAT OCT 21 2017

MEZ002-005-006-010-012-015-018-020-021-024-026-027-029-220300-
MAINE

CITY           SKY/WX    TMP DP  RH WIND       PRES   REMARKS
PORTLAND       CLOUDY    53  50  89 VRB3      30.29S
SANFORD        PTCLDY    49  47  93 CALM      30.30R
BAR HARBOR     PTCLDY    48  43  82 CALM      30.32S
WISCASSET      MOCLDY    50  47  89 CALM      30.32R
ROCKLAND       PTCLDY    47  47 100 CALM      30.31R
FRYEBURG       NOT AVBL
LEWISTONAUBURN PTCLDY    51  45  79 CALM      30.30R
AUGUSTA        CLOUDY    54  45  71 CALM      30.31R
WATERVILLE     CLOUDY    52  45  77 CALM      30.28R
BANGOR         CLOUDY    51  42  71 CALM      30.31R
GREENVILLE       N/A     50  43  77 E3        30.29R
MILLINOCKET    MOCLDY    45  43  93 CALM      30.32S
HOULTON        PTCLDY    35  32  88 CALM      30.34R
PRESQUE ISLE   PTCLDY    34  32  92 CALM      30.36R
FRENCHVILLE    CLOUDY    38  24  57 N8        30.34R
CARIBOU        PTCLDY    41  27  57 NE5       30.34R
$$

NHZ002-005-008-009-011-012-014-220300-
NEW HAMPSHIRE

CITY           SKY/WX    TMP DP  RH WIND       PRES   REMARKS
PORTSMOUTH     MOCLDY    57  48  70 CALM      30.29R
ROCHESTER      CLOUDY    60  47  61 CALM      30.30R
NASHUA         CLOUDY    55  49  80 CALM      30.32R
MANCHESTER     MOCLDY    58  49  72 CALM      30.30R
CONCORD        PTCLDY    53  48  83 CALM      30.31R
LACONIA        MOCLDY    54  50  86 CALM      30.31R
PLYMOUTH       FAIR      49  47  93 CALM      30.32R
BERLIN         PTCLDY    46  43  89 CALM      30.32R
WHITEFIELD     CLEAR     46  42  86 CALM      30.32R
JAFFREY        CLOUDY    52  49  89 CALM      30.35R
KEENE          CLOUDY    48  44  86 CALM      30.35R
LEBANON        CLOUDY    50  47  89 CALM      30.32R
MT WASHINGTON  MOCLDY    45  41  87 NW31        N/A
$$

VTZ005-007-008-220300-
VERMONT

CITY           SKY/WX    TMP DP  RH WIND       PRES   REMARKS
ST JOHNSBURY     N/A     51  49  92 MISG      30.31R
BURLINGTON     CLEAR     55  47  74 CALM      30.30R
$$

MAZ007-012-024-CTZ003-RIZ002-NYZ038-NYZ072-220300-
SOUTHERN NEW ENGLAND AND NY

CITY           SKY/WX    TMP DP  RH WIND       PRES   REMARKS
BOSTON         CLOUDY    63  48  58 SW9       30.31R
WORCESTER      CLOUDY    61  37  41 W7        30.34R
NANTUCKET      CLOUDY    60  58  92 SW9       30.36R
PROVIDENCE     CLOUDY    56  49  77 CALM      30.34R
HARTFORD       CLOUDY    58  46  64 CALM      30.33R
ALBANY         CLOUDY    51  46  83 CALM      30.32R
NEW YORK CITY  CLOUDY    67  47  48 S7        30.35R
$$

ANZ081-ANZ082-ANZ150-NHZ014-MEZ023>029-220300-
COASTAL MARINE OBSERVATIONS

STATION/POSITION TIME  TEMP    WIND        PRES    WAVE
                       AIR SEA DIR/SP/G            HT/PER
                 (UTC) (F)     (DEG/KT/KT) (MB)    (FT/S)
MOUNT DESERT ROC 0200   56     170/  6/  6 1026.7R
MATINICUS ROCK   0100   56     170/ 10/ 10 1025.6R
ISLE OF SHOALS   0100   67     240/ 11/ 12 1025.2R
JEFFREYS LEDGE   0136      58                N/A     2/ 4
GEORGES BANK BUO 0050   58 58              1027.8    3/ 6
$$

.............KEY..............
   WCI - WIND CHILL
   TC  - TEMPERATURE IN CELSIUS
   VSB - VISIBILITY IN MILES
   HX  - HEAT INDEX
   FAIR- INDICATES FEW OR NO CLOUDS BELOW 12,000 FT, WITH NO
         SIGNIFICANT WEATHER AND/OR OBSTRUCTIONS TO VISIBILITY.





USA.gov is the U.S. government's official web portal to all federal, state and local government web resources and services.